Regional Weather Roundup
Issued by NWS

Home | Current Version | Previous Version | Graphics & Text | Print | Product List | Glossary On
Versions: 1 2 3 4 5 6 7 8 9 10 11 12 13 14 15 16 17 18 19 20 21 22 23 24 25 26 27 28 29 30 31 32 33 34 35 36 37 38 39 40 41 42 43 44 45 46 47 48 49 50
488
ASUS45 KBOI 291610
RWRID

IDAHO REGIONAL WEATHER ROUNDUP
NATIONAL WEATHER SERVICE BOISE ID
1000 AM MDT WED MAR 29 2017

NOTE: "FAIR" INDICATES FEW OR NO CLOUDS BELOW 12000 FEET
WITH NO SIGNIFICANT WEATHER AND/OR OBSTRUCTIONS TO VISIBILITY

IDZ012-014-291700-
SOUTHWEST IDAHO


CITY           SKY/WX    TMP DP  RH WIND       PRES   REMARKS
BOISE          CLOUDY    49  32  52 SE17      30.16F
CALDWELL       CLOUDY    48  36  63 SE13      30.17S
MOUNTAIN HOME  PTSUNNY   46  38  74 E14       30.18F
$$

IDZ016-017-291700-
SOUTHCENTRAL IDAHO


CITY           SKY/WX    TMP DP  RH WIND       PRES   REMARKS
BURLEY         SUNNY     48  31  51 SW12      30.20F
JEROME         SUNNY     43  31  62 CALM      30.22S
TWIN FALLS     SUNNY     49  30  48 S13       30.21S
$$

IDZ019>023-291700-
SOUTHEAST IDAHO


CITY           SKY/WX    TMP DP  RH WIND       PRES   REMARKS
IDAHO FALLS    PTSUNNY   42  31  64 S17       30.22F
POCATELLO      MOSUNNY   46  32  58 SW13      30.23S
REXBURG        MOSUNNY   40  30  67 SW10      30.21S WCI  33
$$

IDZ006-010-011-018-031-032-291700-
CENTRAL IDAHO MOUNTAINS


CITY           SKY/WX    TMP DP  RH WIND       PRES   REMARKS
MCCALL         LGT RAIN  35  32  88 SE7       30.12F WCI  29
HAILEY         PTSUNNY   36  25  64 W7        30.21F WCI  30
STANLEY          N/A     26  22  84 VRB3      30.18F
SALMON         CLOUDY    37  28  70 CALM      30.12F
CHALLIS        CLOUDY    37  25  61 CALM      30.15F
$$

IDZ002-004-006-007-026-291700-
NORTHERN IDAHO


CITY           SKY/WX    TMP DP  RH WIND       PRES   REMARKS
LEWISTON       LGT RAIN  46  42  86 E9        30.01F
LOWELL           N/A     42  40  92 N3        30.10R
COEUR D`ALENE  LGT RAIN  39  37  92 SE6       29.99F WCI  35
MULLAN PASS    SNOW      32  30  92 VRB5      29.94F VSB 1/4 WCI  27
$$




USA.gov is the U.S. government's official web portal to all federal, state and local government web resources and services.